SCP
0 0 0 0 0 0 0 0 0 0 0 0 0 0 0 1 1 1 1 1 1 1 1 1 2 2 2 1 1 1 1 1 1 0 0 0 0 0 0 0 0 0 0 0
0 0 0 0 0 0 0 0 0 0 0 0 0 0 0 0 1 1 1 1 1 2 1 1 1 1 1 1 1 1 1 1 1 0 0 0 0 0 0 0 0 0 0 0
0 0 0 0 0 0 0 0 0 0 0 0 0 0 0 0 1 1 1 1 2 2 1 1 1 1 1 1 1 1 1 1 1 0 0 0 0 0 0 0 0 0 0 0
0 0 0 0 0 0 0 0 0 0 0 0 0 0 0 0 1 1 1 1 2 1 1 1 1 1 1 1 1 1 1 1 1 0 0 0 0 0 0 0 0 0 0 0
0 0 0 0 0 0 0 0 0 0 0 0 0 0 0 0 0 1 1 1 1 1 1 1 1 1 1 1 1 1 1 1 1 0 0 0 0 0 0 0 0 0 0 0
0 0 0 0 0 0 0 0 0 0 0 0 0 0 0 0 0 1 1 1 1 1 1 1 1 1 1 1 1 1 1 1 0 0 0 0 0 0 0 0 0 0 0 0
0 0 0 0 0 0 0 0 0 0 0 0 0 0 0 0 0 1 1 1 1 1 1 1 1 1 1 1 1 1 0 0 0 0 0 0 0 0 0 0 0 0 0 0
0 0 0 0 0 0 0 0 0 0 0 0 0 0 0 0 0 1 1 1 1 1 1 1 1 1 1 1 1 0 0 0 0 0 0 0 0 0 0 0 0 0 0 0
0 0 0 0 0 0 0 0 0 0 0 0 0 0 0 0 0 1 1 1 1 1 1 1 0 0 0 0 0 0 0 0 0 0 0 0 0 0 0 0 0 0 0 0
0 0 0 0 0 0 0 0 0 0 0 0 0 0 0 0 1 1 1 1 1 1 1 0 0 0 0 0 0 0 0 0 0 0 0 0 0 0 0 0 0 0 0 0
0 0 0 0 0 0 0 0 0 0 0 0 0 0 0 0 1 1 1 1 1 1 1 1 1 1 1 1 1 0 0 0 0 0 0 0 0 0 0 0 0 0 0 0
0 0 0 0 0 0 0 0 0 0 0 0 0 0 0 0 1 1 1 1 1 1 1 1 1 1 1 0 0 0 0 0 0 0 0 0 0 0 0 0 0 0 0 0
0 0 0 0 0 0 0 0 0 0 0 0 0 0 0 1 1 1 1 1 1 1 1 1 1 1 0 0 0 0 0 0 0 0 0 0 0 0 0 0 0 0 0 0
0 0 0 0 0 0 0 0 0 0 0 0 0 0 1 1 1 1 1 1 1 1 1 1 1 1 0 0 0 0 0 0 0 0 0 0 0 0 0 0 0 0 0 0
0 0 0 0 0 0 0 0 0 0 0 0 0 0 1 1 1 1 1 1 1 1 1 1 1 1 0 0 0 0 0 0 0 0 0 0 0 0 0 0 0 0 0 0
0 0 0 0 0 0 0 0 0 0 0 0 0 0 1 1 1 1 1 1 1 1 1 1 1 0 0 0 0 0 0 0 0 0 0 0 0 0 0 0 0 0 0 0
0 0 0 0 0 0 0 0 0 0 0 0 0 0 1 1 1 1 1 1 1 1 1 1 1 0 0 0 0 0 0 0 0 0 0 0 0 0 0 0 0 0 0 0
0 0 0 0 0 0 0 0 0 0 0 0 0 1 1 1 1 1 1 1 1 1 1 1 0 0 0 0 0 0 0 0 0 0 0 0 0 0 0 0 0 0 0 0
0 0 0 0 0 0 0 0 0 0 0 1 1 1 1 1 1 1 1 1 1 1 1 0 0 0 0 0 0 0 0 0 0 0 0 0 0 0 0 0 0 0 0 0
0 0 0 0 0 0 0 0 0 0 1 1 1 1 1 1 1 1 1 1 1 1 0 0 0 0 0 0 0 0 0 0 0 0 0 0 0 0 0 0 0 0 0 0
0 0 0 0 0 0 0 0 0 0 1 1 1 1 1 1 1 1 1 1 1 0 0 0 0 0 0 0 0 0 0 0 0 0 0 0 0 0 0 0 0 0 0 0
0 0 0 0 0 0 0 0 0 0 1 1 1 1 1 1 1 1 1 1 0 0 0 0 0 0 0 0 0 0 0 0 0 0 0 0 0 0 0 0 0 0 0 0
0 0 0 0 0 0 0 0 0 0 1 1 1 1 1 1 1 1 1 0 0 0 0 0 0 0 0 0 0 0 0 0 0 0 0 0 0 0 0 0 0 0 0 0
0 0 0 0 0 0 0 0 0 0 1 1 1 1 1 1 1 0 0 0 0 0 0 0 0 0 0 0 0 0 0 0 0 0 0 0 0 0 0 0 0 0 0 0
0 0 0 0 0 0 0 0 1 1 1 1 1 1 1 0 0 0 0 0 0 0 0 0 0 0 0 0 0 0 0 0 0 0 0 0 0 0 0 0 0 0 0 0
0 0 0 0 0 0 0 0 1 1 1 1 1 1 1 0 0 0 0 0 0 0 0 0 0 0 0 0 0 0 0 0 0 0 0 0 0 0 0 0 0 0 0 0
Wind_Speed
2 2 4 8 7 7 5 6 7 8 4 3 5 6 9 10 10 11 10 10 9 9 7 8 10 10 10 9 9 9 9 8 6 4 4 4 4 3 4 4 6 7 7 6
1 6 11 8 7 7 7 7 7 6 3 2 4 5 6 9 12 13 12 11 11 8 6 6 7 9 10 10 10 9 9 9 7 5 4 3 3 3 4 4 5 7 7 7
8 8 6 7 9 7 8 5 5 4 4 4 3 3 0 2 4 7 9 10 11 12 12 10 10 9 9 10 10 9 8 8 7 6 4 3 2 2 2 3 4 5 7 7
7 10 8 7 9 7 8 8 5 2 2 2 3 1 5 2 3 7 9 9 10 10 11 10 10 9 9 9 8 7 8 7 7 7 6 6 5 4 4 4 4 5 6 7
8 6 7 9 10 8 8 7 2 0 2 2 3 3 5 0 3 6 8 10 11 10 11 10 10 9 7 8 8 7 8 7 7 7 7 6 5 4 3 3 4 5 5 6
8 7 6 9 9 7 5 2 6 6 6 2 3 3 4 4 7 8 8 9 10 9 9 8 6 6 6 6 6 7 8 7 7 7 6 6 6 5 4 4 5 4 4 4
6 9 7 5 5 5 2 6 5 5 5 5 4 3 7 7 6 10 11 9 9 9 9 8 7 7 7 7 6 6 7 6 6 6 6 6 6 6 6 6 6 5 4 4
4 8 7 5 8 7 5 10 8 5 4 4 3 2 5 2 4 7 8 8 9 8 8 8 7 7 7 8 7 6 6 5 6 6 5 5 5 4 4 5 5 5 5 5
7 8 7 7 7 10 6 5 10 8 2 0 4 3 5 4 6 6 7 7 7 9 9 8 7 6 6 6 6 7 6 5 5 5 5 5 5 4 4 4 4 4 4 4
7 5 7 5 3 5 9 8 6 6 4 2 3 2 4 2 4 5 6 6 5 6 7 7 7 6 5 5 5 5 5 5 4 4 4 4 4 4 3 3 3 3 4 4
8 5 7 4 4 8 4 5 6 5 6 7 3 6 6 8 8 8 7 5 6 6 7 7 5 5 5 5 5 5 4 4 3 2 2 2 2 2 2 2 2 2 2 3
8 7 6 8 8 8 8 9 9 6 4 5 5 6 3 5 7 8 8 6 6 6 6 7 7 6 5 4 4 5 4 4 3 3 3 2 2 2 2 1 1 1 2 2
8 7 2 8 8 1 3 5 7 7 6 5 5 4 2 6 7 7 9 8 8 7 7 7 7 6 4 4 4 4 4 4 4 3 3 3 2 2 2 1 1 2 2 1
9 6 8 10 8 4 3 4 5 8 5 5 7 6 3 7 8 7 7 8 9 8 8 7 6 5 4 4 4 5 4 4 4 4 3 3 3 3 2 2 2 2 2 2
7 5 5 6 5 3 2 3 4 6 8 9 9 11 12 12 12 11 10 9 10 9 9 8 6 5 5 5 5 5 4 4 4 4 4 3 3 3 3 3 3 3 3 3
4 4 3 1 2 1 1 2 2 4 4 6 8 5 6 7 7 7 9 10 10 10 10 8 7 6 5 5 5 5 5 4 5 5 4 4 4 3 3 3 3 3 3 3
2 4 4 1 2 3 3 3 2 2 4 9 9 9 11 9 10 11 11 10 9 9 10 9 8 7 5 4 5 5 5 5 6 5 5 4 4 4 4 4 4 4 4 4
3 4 4 2 2 3 7 4 2 3 1 3 6 10 15 12 9 7 8 10 9 9 9 8 7 6 5 6 5 6 6 6 6 5 5 4 4 4 4 4 4 4 4 4
5 7 4 4 3 3 4 3 1 4 2 1 10 14 12 12 10 5 4 7 8 8 9 7 7 7 7 6 6 7 6 6 6 5 5 4 4 4 4 5 4 4 5 5
4 5 5 4 3 5 6 4 2 8 2 1 10 14 14 11 8 5 5 8 9 9 8 7 7 7 7 6 7 8 6 6 6 4 4 4 4 4 4 4 4 4 5 5
3 3 3 4 3 5 5 4 2 5 6 4 9 11 10 5 5 9 10 9 9 9 9 9 8 7 6 6 7 8 7 6 5 4 5 5 4 4 5 5 4 5 5 6
2 2 2 3 3 7 4 0 4 6 5 8 10 9 9 10 12 11 11 11 10 10 9 9 8 7 5 6 7 8 6 5 5 6 6 6 5 5 5 5 5 5 6 7
1 3 4 5 6 5 2 3 4 7 10 8 9 11 13 13 13 11 10 9 9 9 8 7 9 8 6 5 7 8 6 5 6 7 7 6 7 6 5 5 5 5 5 5
3 2 1 1 1 2 3 4 5 7 9 10 12 13 14 15 13 11 9 8 8 8 8 7 9 9 7 5 6 6 6 6 8 8 6 6 7 7 7 6 5 5 4 4
3 2 2 2 1 5 6 4 5 8 12 13 12 10 12 16 14 11 9 8 8 7 7 7 8 8 7 6 6 6 5 7 8 8 7 6 6 7 8 8 7 6 5 3
2 2 3 4 4 3 1 1 5 9 11 13 15 12 11 12 13 11 9 7 7 8 7 7 7 8 7 7 7 5 5 6 8 7 6 5 5 6 6 7 8 14 11 13
Wind_Direction
229 117 223 229 211 216 258 285 284 276 259 153 161 169 180 176 172 171 173 174 174 180 173 170 165 163 158 160 163 166 165 167 163 159 157 156 167 170 175 183 181 178 177 169
338 248 233 233 247 250 262 275 282 296 297 124 163 184 178 174 182 177 174 172 167 163 157 167 161 166 167 167 173 172 172 172 172 171 163 159 155 170 177 183 183 181 177 174
207 240 230 231 254 262 272 250 249 259 329 21 97 358 276 198 163 168 168 167 166 165 164 173 174 175 170 172 175 178 177 173 171 162 142 128 111 113 154 183 190 192 183 182
241 250 256 252 249 236 263 260 248 258 60 305 106 201 282 211 163 174 176 166 169 168 169 177 176 178 180 179 172 169 170 170 168 162 161 163 170 182 192 187 185 189 187 184
240 234 226 236 240 227 234 256 265 217 112 25 12 118 283 272 176 192 185 174 178 175 170 174 178 177 174 167 169 166 167 170 169 170 172 173 182 188 175 171 177 191 195 192
251 264 229 224 239 227 232 6 18 41 66 14 259 145 260 229 202 187 180 175 174 167 163 164 166 153 146 148 159 165 167 173 174 175 177 177 181 183 179 185 189 196 199 200
288 279 261 245 251 276 112 84 29 1 14 258 265 154 239 238 191 169 164 168 167 160 157 155 151 150 151 153 161 166 167 174 176 176 181 183 185 188 194 196 197 195 196 202
224 272 252 222 196 201 186 139 155 186 216 278 330 223 265 271 136 137 139 149 157 157 154 157 157 154 160 163 164 164 166 175 177 181 188 189 190 194 204 202 197 199 204 208
199 248 265 235 199 164 170 176 170 141 168 331 300 306 334 59 93 111 119 131 152 160 159 157 152 150 152 157 164 164 165 170 176 183 192 191 194 200 207 204 199 201 203 205
181 253 278 262 207 192 169 164 108 121 157 234 285 257 219 189 148 136 124 137 147 154 152 145 147 149 148 151 150 148 157 168 171 174 183 185 192 198 197 190 196 198 200 200
179 208 288 329 198 203 177 150 130 135 155 156 208 263 234 184 162 145 136 145 147 141 138 136 136 140 143 139 136 142 153 146 147 153 153 148 160 172 167 175 198 204 201 188
178 160 242 259 247 201 176 178 150 156 208 160 160 258 304 156 141 131 129 129 134 130 136 131 128 121 122 118 127 138 143 138 139 139 138 145 146 138 143 176 193 180 184 187
163 145 201 320 328 313 174 181 165 145 134 151 158 240 355 114 122 128 133 135 136 131 123 114 114 118 122 127 131 134 132 133 134 131 131 121 113 117 115 120 131 139 148 156
138 132 165 199 219 210 201 211 165 133 153 187 192 180 181 148 144 143 140 142 149 137 125 120 118 121 127 130 126 124 126 129 126 120 116 112 111 112 102 87 88 98 113 114
119 152 185 203 210 190 198 222 189 168 180 176 190 176 189 177 165 158 148 144 143 138 132 131 124 121 122 117 112 118 118 120 121 116 112 110 102 97 86 76 82 81 85 94
74 142 159 243 267 14 332 293 228 205 179 154 143 178 182 160 145 138 144 145 144 141 136 132 123 118 119 126 125 119 115 116 115 112 105 99 96 91 84 82 89 86 82 82
32 107 110 227 314 37 308 273 233 207 170 156 175 188 155 154 158 153 145 140 142 139 134 134 133 135 138 133 123 123 119 107 101 102 101 96 95 91 84 88 96 95 90 85
133 97 119 137 71 219 244 263 176 140 157 171 157 154 157 152 145 141 143 142 141 140 134 133 133 130 123 112 110 109 104 101 100 96 94 95 96 87 78 75 88 98 94 91
147 132 114 120 162 261 290 301 116 119 12 65 136 140 136 123 99 80 117 131 136 135 132 128 124 119 113 111 114 106 97 96 95 92 88 84 91 92 85 80 79 95 99 92
64 104 116 122 149 219 242 261 177 100 34 2 140 146 145 133 134 170 144 122 118 117 116 117 114 108 110 113 114 106 102 98 95 94 92 86 85 90 91 93 88 85 94 95
18 43 123 152 186 248 250 271 90 133 201 159 135 144 142 147 153 138 125 117 115 112 113 111 108 105 111 116 111 107 103 99 99 95 91 82 78 84 92 90 87 90 90 87
183 161 180 150 176 241 267 41 156 177 151 128 126 128 119 114 111 114 117 118 115 110 109 111 109 105 103 108 111 107 102 100 96 91 85 79 73 80 84 88 85 86 92 93
181 194 186 184 208 246 255 174 154 139 131 133 131 130 130 125 122 122 118 117 116 114 111 110 111 106 95 98 111 112 110 108 103 93 85 80 74 67 66 75 80 83 89 96
319 346 85 68 348 7 38 79 105 123 125 128 130 131 131 126 125 123 119 118 115 115 116 115 113 112 106 97 100 108 111 109 104 98 89 83 83 72 60 57 59 71 78 94
274 356 43 60 22 40 25 38 96 104 111 113 111 116 125 125 126 127 124 121 123 121 115 113 115 116 114 111 103 102 107 108 104 101 97 90 86 87 77 65 52 58 48 86
239 173 162 205 204 140 181 326 98 108 117 124 120 109 108 116 119 118 115 113 117 116 115 113 112 114 112 109 105 101 103 111 111 108 105 101 99 95 93 91 74 55 62 65